Location: ??????
(41.3164°N, 22.6615°E)
Time: 03:09:56
(UTC+00:00)

Oscar 19 - Pass Details

Date: 02 July 2022
Orbit: 773 x 790 km, 98.8° (Epoch: 11 August)

Event Time Altitude Azimuth Distance (km) Brightness Sun altitude
Rises 01:32:48 0° 20° (NNE) 3,259 15.2 -13.4°
Reaches altitude 10° 01:35:14 10° 27° (NNE) 2,326 14.4 -13.1°
Maximum altitude 01:40:08 44° 99° (E) 1,057 11.6 -12.5°
Drops below altitude 10° 01:44:59 10° 172° (S) 2,312 12.7 -11.8°
Enters shadow 01:46:34 - 176° (S) 2,921 13.2 -11.6°
